Location: Brachstadt
(48.6975°N, 10.6755°E)
Time: 05:26:44
(UTC+00:00)

Cosmos 2227 - Pass Details

Date: 18 September 2020
Orbit: 836 x 859 km, 71.0° (Epoch: 29 October)

Event Time Altitude Azimuth Distance (km) Brightness Sun altitude
Rises 17:57:35 0° 198° (SSW) 3,419 7.5 -6.5°
Reaches altitude 10° 18:00:02 10° 196° (SSW) 2,485 6.7 -6.9°
Maximum altitude 18:05:43 69° 114° (ESE) 914 4.2 -7.8°
Drops below altitude 10° 18:11:24 10° 32° (NNE) 2,489 6.5 -8.7°
Sets 18:13:51 0° 30° (NNE) 3,426 7.2 -9.1°
